Weather in Bagan

Russia / Novosibirsk Oblast     54°05′50″N   77°39′56″E
temp.,
°C
wind,
m/s
gust,
m/s
humid.,
%
clouds,
%
prec.,
mm/h
press.,
hPa
HPBL,
m
1 march, mon
mon101:00−7ese5995100 0.7 1012321
04:00−4ese5996100 1.8 1008393
07:00−3ese2398100 2.9 100673
10:000sw51199100 0.9 1005548
13:000wsw71299100 1.3 1005679
16:000wsw71295100 0.3 1006688
19:00−1wsw51097100 1.0 1007545
22:00−8nw369698 0.4 1009145
2 march, tue
tue201:00−14wnw459796 0.5 101292
04:00−17wnw3597100 0.1 101580
07:00−19wnw339891 0.1 101730
10:00−20w239762 0.0 101840
13:00−15wsw239273 0.1 1018249
16:00−13sw2390100 0.2 1017375
19:00−14sw129697 0.3 101720
22:00−16sw229774 0.1 101720
3 march, wed
wed301:00−16sw229777 0.1 101720
04:00−16sw229786 0.1 101629
07:00−16sw229693 0.3 101732
10:00−15sw239694 0.1 1017134
13:00−12sw469489 0.1 1018334
16:00−13ssw5893100 0.0 1018398
19:00−15ssw51093100 0.1 1019345
22:00−14s5119297 0.0 1018334
4 march, thu
thu401:00−12ssw6119393 0.1 1018397
04:00−11ssw61194100 0.4 1017394
07:00−10ssw61293100 0.6 1016350
10:00−9s71294100 0.2 1016389
13:00−6ssw81294100 0.5 1015539
16:00−4ssw81292100 0.4 1013654
19:00−3ssw81393100 0.9 1013629
22:00−4s71486100 0.0 1012435
5 march, fri
fri501:00−6s61487100 0.0 1010293
04:00−6sse5989100 0.0 1007259
07:00−7sse4896100 0.8 1005343
10:00−7wsw3795100 0.8 1005247
13:00−2w8129199 0.8 1009722
16:00−5wsw8138389 0.1 1014687
19:00−7sw8168262 0.1 1016615
22:00−6sw101880100 0.0 1016861